Dewpoint
58 58 57 59 58 59 59 59 58 58 57 59 59 59 58 57 58 58 58 59 58 59 60 60 60 60 60 61 59 59 55 26 20 16 13 17 37 54 53 55 56 59 58 39 29 22 20 25 25 24 13 18 25 25 26 27 36 32 28 26 24 26 26 29 27 24 23 23 27 23 27 25 24 26 25 26 32 38 36 32 30 32 33 35 37 41 43 44
59 59 59 59 59 58 58 58 57 58 58 58 58 58 57 57 57 58 58 58 59 59 60 60 60 60 60 60 58 58 38 24 19 16 16 30 56 57 56 56 58 58 51 23 30 28 17 17 28 15 12 16 20 22 24 24 28 29 27 25 24 26 28 31 28 28 21 20 25 21 20 28 23 22 28 26 30 35 34 32 31 33 36 38 40 41 42 43
58 58 58 58 58 58 58 58 58 59 59 59 59 57 57 57 57 58 58 58 59 59 59 60 60 60 60 60 58 58 40 25 20 18 19 48 54 55 57 59 59 57 38 23 28 29 25 24 29 17 14 15 14 18 23 22 28 30 28 24 25 27 27 29 26 19 19 21 22 21 20 20 20 22 23 28 29 35 35 32 30 33 35 36 38 39 40 40
59 58 58 58 58 59 59 59 60 60 59 59 60 59 59 58 58 58 58 59 59 59 59 60 60 61 60 59 58 49 23 19 15 20 24 51 54 55 58 57 59 54 40 40 34 38 33 26 21 16 15 14 16 19 17 20 23 23 26 25 26 28 24 22 25 18 14 24 21 20 21 21 21 21 22 24 26 22 22 27 33 31 33 34 35 36 37 29
58 58 58 58 58 59 59 58 58 59 59 59 60 59 59 59 59 59 59 59 59 59 59 60 60 60 60 60 54 41 24 18 19 22 22 51 54 55 56 54 57 43 31 31 34 30 28 24 16 17 15 11 17 10 14 19 21 26 25 26 26 25 22 23 16 13 16 20 19 19 21 20 21 21 21 21 22 20 22 23 30 29 29 30 26 24 24 23
58 58 58 58 58 58 58 58 58 59 59 59 60 60 59 59 59 59 59 58 59 59 59 60 60 60 60 58 43 35 20 17 26 16 43 52 53 54 53 55 57 42 33 17 17 16 12 11 11 15 14 9 9 7 8 15 16 17 20 14 20 21 19 14 13 14 20 20 18 18 19 20 20 20 20 21 21 22 24 25 24 24 24 24 24 23 22 22
58 58 58 58 57 57 58 57 58 58 59 59 59 59 59 59 59 59 59 59 58 59 59 60 60 60 60 53 42 25 18 18 15 17 45 52 51 48 49 53 45 25 18 16 15 15 14 11 12 18 16 15 14 5 9 18 19 18 16 19 15 18 18 12 13 17 18 18 17 19 20 20 21 20 20 18 19 21 24 23 22 22 21 21 20 19 18 17
57 58 58 57 56 56 56 57 57 58 59 58 59 58 58 59 59 59 58 58 58 59 59 60 60 59 55 36 30 23 13 14 12 24 43 48 31 29 37 30 21 21 17 16 15 15 13 12 11 19 14 11 16 13 23 15 22 18 16 20 16 10 10 15 17 17 18 18 19 19 19 19 19 19 19 17 16 16 17 18 18 18 17 17 17 16 16 15
57 58 57 56 55 56 57 57 57 58 58 58 58 58 59 59 59 59 59 58 58 58 59 59 60 60 53 34 26 20 13 11 15 18 24 22 21 22 24 20 21 17 18 19 18 15 12 14 14 13 14 16 14 20 22 15 16 19 18 21 17 10 11 15 16 17 18 19 20 19 19 19 19 19 18 18 15 14 14 14 15 15 15 15 15 15 14 14
57 57 57 55 56 56 56 57 57 58 58 58 58 58 59 59 59 59 59 59 59 59 59 59 60 56 38 27 25 13 14 18 16 20 24 23 22 21 21 22 20 18 16 16 17 16 14 12 12 14 15 14 18 19 25 17 14 25 25 23 15 17 9 11 16 17 17 18 19 17 16 17 19 19 17 18 16 14 11 11 12 12 12 12 13 14 14 13
58 57 56 56 56 56 56 58 57 57 58 58 58 59 58 59 59 59 59 59 59 59 59 60 58 49 29 22 17 12 15 17 21 22 23 24 21 20 20 21 21 19 17 17 17 19 16 16 16 19 21 15 19 20 21 22 23 23 21 23 22 19 12 11 14 15 15 14 17 17 17 19 19 20 18 17 13 12 10 9 9 10 10 10 11 12 13 13
57 57 57 57 57 57 58 57 57 58 58 58 58 58 58 59 59 59 59 59 59 59 59 59 56 32 22 16 16 16 18 16 24 20 22 22 20 20 22 23 21 18 18 18 18 18 20 21 18 21 12 19 15 21 21 26 21 21 21 15 20 21 15 15 13 14 13 14 16 16 14 17 18 17 17 14 12 10 8 8 8 8 8 9 10 11 12 13
57 57 57 57 57 58 58 57 57 58 58 58 58 58 58 59 59 59 59 58 59 59 59 59 54 37 31 21 17 16 18 24 23 22 21 23 19 21 23 22 21 19 18 18 18 20 26 24 15 15 23 20 22 9 23 23 21 20 19 16 17 19 18 16 14 10 11 14 16 15 9 16 17 17 15 13 10 9 8 7 7 7 7 8 9 9 10 11
56 55 57 57 57 58 57 57 57 57 58 58 58 58 58 58 59 59 59 59 60 59 60 59 40 34 25 16 16 16 21 35 21 20 20 23 19 19 21 22 22 21 23 19 19 21 24 23 17 20 31 19 17 25 21 24 24 12 17 22 15 13 12 19 12 9 9 11 16 18 9 15 17 18 15 15 13 9 7 7 7 7 7 7 9 8 7 7
56 57 57 57 57 57 57 57 57 57 58 58 57 58 58 56 58 59 59 59 58 58 58 52 39 35 20 19 17 21 45 21 19 19 21 19 18 18 18 21 22 21 22 19 18 24 25 24 23 24 23 29 28 21 18 23 24 24 13 14 20 14 18 20 21 17 10 13 16 17 11 16 17 18 17 15 12 8 7 7 7 7 6 7 7 7 7 7
56 56 57 55 56 57 57 57 56 57 58 57 57 57 57 56 55 56 57 57 56 57 50 36 37 23 19 12 11 33 19 18 18 20 21 20 19 19 19 22 22 21 19 18 20 20 21 25 22 24 25 26 24 22 20 18 19 22 17 12 14 18 19 17 19 19 18 14 15 15 15 16 17 18 15 13 10 8 8 7 7 7 7 7 7 8 8 8
56 56 57 56 56 57 57 57 56 57 57 58 57 56 57 55 55 56 57 55 51 53 31 30 33 34 20 17 18 18 18 19 21 21 21 21 20 20 22 20 19 20 19 17 20 17 17 22 26 22 28 24 24 21 15 18 17 19 21 15 18 15 16 15 21 22 18 16 15 17 16 16 16 15 13 12 10 9 8 7 7 8 8 8 8 8 8 8
55 56 56 56 56 56 57 56 57 56 56 57 56 56 50 55 53 51 42 45 44 40 40 38 35 23 18 16 17 18 19 20 21 21 21 22 23 21 21 21 21 20 24 18 19 16 20 19 25 18 19 22 23 20 18 10 16 17 17 18 19 19 20 18 18 20 19 19 16 16 16 16 15 14 13 12 12 9 8 8 8 8 9 9 9 9 9 9
56 56 56 56 56 56 56 57 56 56 56 57 55 56 54 51 43 31 34 33 31 26 21 21 23 15 12 16 15 19 20 22 22 21 21 22 24 23 25 23 26 22 22 20 21 25 26 23 22 19 17 20 21 22 18 19 21 20 20 19 18 16 19 19 22 20 19 17 17 16 15 15 14 13 13 12 11 10 9 9 9 9 9 9 9 10 9 10
55 56 56 55 56 56 57 56 56 56 57 50 42 33 37 30 26 24 28 33 24 23 23 24 25 22 21 18 18 20 22 19 19 20 21 23 22 21 23 26 25 26 28 20 25 28 28 21 18 15 19 21 22 23 23 21 23 22 22 21 20 20 21 22 20 20 23 19 16 16 16 15 14 13 13 12 11 10 10 9 9 9 9 9 9 10 10 9
56 56 55 55 55 56 56 55 56 56 54 43 37 31 22 24 21 17 24 29 30 32 27 26 26 19 18 18 20 21 18 18 20 19 21 25 23 20 20 24 24 22 23 27 24 28 25 20 21 21 20 21 22 21 24 20 22 20 20 19 18 19 17 21 22 22 21 19 16 17 16 16 15 14 13 13 11 10 10 9 9 9 10 10 10 11 11 11
55 55 55 55 55 56 56 56 56 53 51 42 38 27 32 32 35 29 28 21 29 32 28 27 24 19 19 21 21 22 20 19 17 18 21 23 23 21 24 22 22 19 23 27 22 19 16 17 21 22 22 24 21 19 20 16 16 19 14 15 14 16 20 21 22 21 19 19 17 17 17 18 17 15 14 12 11 12 11 10 10 10 10 11 11 12 12 14
55 55 54 55 55 55 56 56 55 51 39 39 37 37 38 41 44 43 32 27 25 29 27 26 22 18 20 22 22 22 19 18 18 17 20 23 23 25 26 22 23 23 20 18 15 17 13 17 19 25 25 20 18 19 18 16 18 15 15 16 12 18 11 11 18 20 19 19 17 18 17 17 18 18 17 17 16 14 12 12 11 12 11 11 11 12 13 12
54 54 55 55 54 55 55 56 52 42 39 38 39 38 41 43 43 41 30 22 22 24 29 27 24 20 21 21 23 22 19 20 20 16 22 21 23 24 24 23 22 23 20 21 18 16 16 18 24 20 21 19 17 18 17 15 11 16 19 15 14 15 15 11 13 19 19 19 19 18 17 17 17 16 15 18 17 15 17 15 14 14 14 14 14 14 14 12
53 54 54 55 55 55 55 51 42 39 40 31 38 41 41 42 42 38 28 20 19 20 30 28 24 20 22 24 29 24 24 22 21 21 24 21 22 26 21 26 23 20 23 23 20 16 15 18 24 18 16 17 17 15 18 16 13 13 16 17 18 17 17 18 18 16 12 14 18 17 7 7 16 17 16 17 16 14 16 14 13 13 14 15 13 13 14 15
54 54 55 54 54 54 54 38 35 40 34 25 34 42 41 42 43 37 24 18 4 16 26 18 27 20 23 23 24 28 21 21 22 21 31 23 25 27 25 21 23 21 23 21 20 19 17 20 18 16 16 16 17 15 17 17 12 9 10 18 19 19 19 18 18 13 6 5 10 18 8 -0 16 16 18 18 16 14 16 14 14 14 14 15 14 13 13 13
54 54 55 54 54 50 31 26 34 41 30 29 43 42 40 43 43 41 28 12 5 11 17 24 22 19 27 26 24 23 14 17 21 22 20 22 24 28 23 20 23 24 26 23 20 14 22 19 18 16 14 15 14 13 14 17 12 10 12 20 20 16 16 16 17 15 13 15 19 17 14 6 6 13 18 19 16 15 16 16 15 15 15 15 14 14 13 14
54 54 54 54 53 49 27 35 31 28 29 38 42 42 42 43 39 32 19 -7 -10 21 18 24 23 27 26 27 21 19 19 22 18 18 24 24 24 23 21 19 19 18 20 19 7 16 18 19 20 15 15 14 12 14 17 19 14 15 18 20 18 18 18 19 16 16 14 13 7 12 17 10 5 13 18 18 16 16 16 16 16 16 15 15 15 15 14 14
54 54 54 55 53 51 43 41 33 30 36 42 40 42 43 38 31 25 16 -9 2 21 27 23 27 21 26 25 20 23 24 25 20 24 26 23 20 22 15 19 22 18 20 21 19 17 22 22 23 15 15 13 15 17 19 19 12 18 20 20 20 22 21 19 15 14 8 4 -0 7 15 8 9 13 17 18 17 17 17 18 17 17 16 16 16 15 15 15
54 53 54 54 43 36 39 40 38 41 42 41 42 40 37 33 23 18 -5 -14 19 11 24 24 23 20 25 19 19 22 20 22 26 25 23 19 19 21 23 24 21 18 17 19 20 21 22 28 28 19 16 17 18 20 20 20 18 19 18 14 15 11 15 16 13 8 3 -4 5 8 15 13 8 13 16 16 17 18 18 19 19 18 17 17 17 16 16 16
54 54 54 49 31 32 37 37 39 41 41 42 41 38 21 17 16 3 -14 -6 22 21 23 21 21 27 22 17 16 20 24 23 22 23 19 22 19 21 21 16 20 15 14 17 13 17 21 21 19 18 26 24 19 15 22 22 21 17 13 9 9 4 4 8 7 6 -6 -7 1 7 11 14 6 9 16 18 18 18 19 18 20 19 18 17 17 17 17 16
53 53 53 43 38 32 21 25 41 42 42 42 39 32 13 -2 16 2 -2 19 11 15 17 18 23 23 23 23 19 19 19 21 22 22 19 19 19 18 18 15 17 -0 7 9 9 17 16 14 18 20 29 18 16 14 14 17 16 14 11 8 5 -7 -3 -6 -1 -1 -8 -7 1 8 9 5 11 12 17 18 18 18 19 21 21 20 19 18 18 18 18 17
53 53 51 46 43 37 38 36 42 43 41 38 30 26 13 10 -9 0 6 14 5 19 17 23 22 22 22 19 18 20 21 17 21 20 22 20 19 18 20 20 20 5 -0 7 10 10 9 14 17 18 17 20 15 11 12 8 12 13 11 3 -2 -9 -14 -9 -9 -4 -6 1 4 7 8 7 8 11 16 17 18 19 20 21 22 22 21 20 19 19 18 18
52 49 40 43 39 41 41 42 42 43 38 37 23 21 16 5 -8 27 9 13 11 22 24 21 22 18 18 14 18 20 15 16 20 18 21 17 20 17 19 20 20 18 14 13 9 8 -1 3 9 15 9 17 15 15 15 11 14 13 14 4 -1 -8 -7 -9 -8 -12 -12 -2 1 6 2 -2 1 10 15 16 17 18 19 20 21 21 22 21 20 19 19 18
52 44 40 42 38 40 42 41 42 40 31 24 18 16 3 -5 0 3 5 15 20 22 20 22 17 14 12 17 17 20 15 12 20 20 19 17 15 18 17 18 20 18 16 9 3 6 7 2 9 18 18 15 13 15 20 17 12 10 12 9 5 -1 4 -4 -7 -7 -9 -3 1 -3 -0 3 10 15 18 18 18 18 20 20 21 21 22 21 20 19 19 19
49 43 44 36 37 37 40 42 40 35 23 19 18 14 3 3 2 10 12 21 22 20 22 19 17 11 11 12 16 15 18 12 16 18 15 19 19 16 19 19 18 19 14 4 3 3 5 4 8 18 17 13 13 18 18 14 3 7 -0 -3 -0 8 10 -3 3 3 -0 -8 -6 -8 5 8 10 11 14 14 15 16 16 18 19 20 20 20 19 19 19 19
39 38 34 34 37 39 40 41 38 29 23 19 16 5 10 16 17 18 30 21 21 24 14 8 5 7 7 6 12 13 15 16 14 12 11 18 12 20 18 18 20 20 19 13 6 7 0 2 13 11 10 16 14 19 20 18 14 7 -1 2 11 14 10 -0 -11 -13 -15 -12 -11 1 0 2 2 -1 12 13 13 14 15 17 18 19 20 19 19 19 19 20
38 36 35 33 36 39 41 40 36 28 26 23 20 26 21 20 24 26 27 24 24 21 15 12 9 10 5 10 9 12 17 13 13 15 12 16 13 20 18 17 20 21 22 21 11 10 12 -1 4 11 13 14 17 17 15 15 17 5 5 14 -2 -10 -4 3 -10 -14 -15 -18 -12 -1 -4 -1 2 6 9 10 11 12 13 15 17 18 19 19 19 19 20 20
34 30 23 28 36 41 40 34 28 21 16 19 17 22 22 21 24 25 26 25 24 21 14 15 9 14 11 8 11 14 14 10 12 13 5 11 7 18 17 19 17 22 22 21 14 17 12 -2 4 11 12 13 12 10 3 8 14 17 15 8 13 5 -6 -4 -9 -9 -4 -13 -10 -7 -9 -2 3 6 9 10 11 12 12 13 15 17 19 19 19 19 19 20
30 23 16 26 35 40 40 33 28 25 21 17 13 14 22 22 25 27 28 25 22 16 14 13 18 11 15 13 16 11 16 17 15 13 11 14 16 20 18 22 18 22 22 20 16 17 11 8 -4 2 11 10 5 11 8 10 5 8 6 2 6 -3 8 4 -2 -2 -2 -14 -12 -12 -3 -1 2 10 12 12 11 11 12 12 13 16 18 19 19 20 20 20
31 24 18 29 34 39 28 27 24 23 23 23 24 24 24 20 24 25 29 30 30 27 20 18 18 12 13 9 9 17 18 17 16 12 15 16 11 4 18 20 24 20 20 16 15 14 5 8 1 6 8 6 7 12 11 11 11 10 5 3 8 -2 -6 -9 -12 -8 -3 1 -3 -11 -2 0 3 10 13 13 13 12 12 12 12 13 15 17 18 19 20 20
25 16 23 31 33 31 27 23 20 22 22 18 19 25 24 35 22 22 24 24 24 23 23 21 21 20 17 13 14 17 18 15 16 13 16 9 17 14 16 22 22 24 14 10 11 16 11 11 10 2 7 4 9 12 16 16 13 12 11 7 7 -2 -5 -12 -10 -4 -4 -2 -9 -9 -4 2 9 9 11 12 13 13 13 13 13 13 14 15 16 17 18 19
24 19 25 33 31 29 19 16 22 24 20 25 26 24 25 25 21 22 21 23 21 22 19 20 19 17 17 19 19 19 18 12 16 13 16 19 17 19 18 20 23 21 19 13 14 16 25 2 -1 4 3 -4 2 3 17 15 13 12 11 11 7 2 1 3 -2 -11 -4 -7 -1 -9 -4 2 7 12 10 10 10 10 10 11 12 13 13 13 14 14 15 16
23 19 21 31 32 29 18 11 14 17 18 23 24 24 27 25 22 21 21 21 21 19 18 18 19 18 17 21 20 19 19 5 12 16 13 19 16 19 20 21 20 19 13 10 9 12 4 3 5 -8 -11 -3 -1 3 7 9 11 10 4 9 7 4 -1 -5 -4 -5 2 -3 1 -2 -5 -4 1 13 13 12 11 10 10 10 10 11 11 12 12 13 13 13
24 24 27 26 27 25 13 19 20 18 22 18 21 19 20 20 25 24 22 20 23 20 18 18 18 21 20 21 21 21 21 14 12 16 14 16 15 21 21 20 22 19 20 20 26 16 2 5 0 -9 -11 -11 -12 -11 -5 -0 1 5 12 13 10 3 4 2 -0 -0 -1 -2 2 -6 -4 -0 1 8 10 11 11 11 11 11 10 10 10 10 10 11 11 11
20 4 15 17 20 25 25 24 23 21 20 14 14 19 21 20 23 24 24 25 24 24 19 20 22 21 19 19 19 20 18 19 15 11 10 11 13 15 23 20 22 23 24 27 25 15 4 10 8 -1 -4 -4 0 1 3 13 8 3 1 10 8 5 -4 -4 -2 -2 1 -5 1 5 2 -5 -4 1 4 5 5 6 6 7 9 9 10 10 10 11 11 11
22 14 17 8 19 19 20 23 23 22 18 21 14 16 13 18 17 23 26 16 24 21 23 22 21 16 15 16 16 20 20 18 18 13 11 9 10 15 17 22 22 24 29 27 21 6 -0 1 9 8 1 3 3 1 2 13 6 7 5 7 6 7 2 4 4 3 3 -3 0 4 6 5 4 4 4 2 -0 2 6 8 9 10 10 10 10 11 18 14
18 20 21 20 20 9 16 12 23 22 23 22 16 21 18 17 17 12 20 22 24 23 21 20 17 21 19 17 14 5 12 10 14 8 12 11 15 15 16 23 22 26 26 18 16 8 -0 -3 -0 6 6 9 10 10 11 10 10 10 9 9 6 8 4 4 5 7 4 1 -2 -4 3 3 1 2 2 -0 2 6 8 9 10 11 11 11 11 11 10 11
25 24 24 23 14 15 19 18 24 24 23 22 24 22 18 17 15 18 17 21 21 20 17 9 10 14 22 22 17 11 14 -2 -2 5 9 9 11 12 9 10 19 18 20 17 16 0 5 -0 0 5 10 12 12 12 12 12 11 9 10 11 10 8 7 9 9 8 5 5 5 4 4 3 3 4 4 5 9 11 11 11 12 11 10 10 10 10 10 10
17 17 15 23 23 21 21 21 21 19 17 21 15 17 21 20 17 19 24 19 12 11 20 14 14 17 22 22 17 8 12 5 4 3 6 13 11 11 7 10 8 16 18 16 12 12 3 2 12 6 2 6 6 6 6 11 9 8 7 7 7 8 8 9 9 8 6 7 7 7 7 8 9 10 11 12 12 10 10 9 8 7 8 9 9 10 10 10
22 24 24 21 19 16 22 20 17 18 12 14 15 17 23 21 17 22 22 21 11 10 20 10 14 21 22 22 19 18 19 17 13 12 14 16 7 13 12 10 16 11 13 12 10 9 6 5 -2 -2 -0 3 2 6 7 7 6 5 4 4 4 4 2 4 4 9 7 7 8 5 6 8 9 8 10 10 9 8 6 5 4 5 6 8 9 9 10 10
27 26 26 22 14 22 17 20 19 14 7 13 18 19 17 18 21 22 17 22 24 21 20 16 20 20 19 20 20 22 21 21 21 21 20 21 20 20 18 17 18 15 8 7 7 8 3 2 -1 -3 -1 -2 2 5 5 4 3 2 2 2 2 3 5 7 7 9 10 8 7 6 6 5 4 4 1 2 3 3 4 4 4 5 6 7 8 9 9 10